星链-32132 (STARLINK-32132)

导读

STARLINK-32132是美国SpaceX公司星链卫星互联网项目的一员,于2024年8月2日从美国发射入轨。星链项目旨在通过部署近4.2万颗低轨道卫星,为全球提供高速、低延迟的宽带互联网服务,尤其覆盖传统基础设施难以触达的偏远地区、海洋及空域。 作为星链大规模组网的组成部分,该卫星运行在近地轨道,将与数千颗已在轨卫星协同,为全球用户提供稳定通信服务,同时星链也已逐步应用于军事与应急通信领域。

基本信息
目录编号:
60334
目录名称:
STARLINK-32132
国际标识:
2024-136F
轨道中心:
EARTH
卫星名称:
星链-32132 (STARLINK-32132)
卫星全名:
星链-32132 (STARLINK-32132)
卫星状态:
在轨 (已飞行764 天)
发射日期:
2024-08-02 UTC
国别 :
美国 (US)
星等 :
--
轨道信息
数据来源 国际轨道数据
星历时间: 2026-09-05T01:29:25+0800
16小时前
查看轨道信息
半长轴: 6840.783km
偏心率: 0.0001265
轨道倾角: 53.160°
近地点辐角 80.006°
升交点赤经 323.528°
平近点角 280.109°
近地点: 461.78km
远地点: 463.512km
周期: 93.847分钟
每日圈数: 15.344193
详细信息
卫星平台:
Starlink v2.0 mini
运营商:
太空探索技术公司
运营商所在国:
美国
制造商(研发单位):
太空探索技术公司
制造商所在国:
美国
使用方式:
暂无
卫星简介
星链(Starlink)计划是由太空探索技术公司(SpaceX)提出的一个巨型低轨卫星互联网星座项目,计划在2019年至2024年间在太空搭建由约1.2万颗卫星组成的“星链”网络,其中1584颗将部署在地球上空550千米处的近地轨道,并从2020年开始工作。该卫星仍在工作。
2D轨道图
3D轨道图
轨道高度分析图
轨道倾角分析图
轨道综合分析图
查看轨道综合分析图
交会数据列表
事件ID 空间交会对象 最接近时刻(TCA) 交会距离 交会风险概率(CRP) 交会风险指数(CRI) 操作
CDM_260907-064305-837506-033421
2026-09-07T
06:43:59+0000
0.767 km
远距离
4.142399E-5 中风险 0.67
CDM_260906-190005-837506-033421
2026-09-06T
19:00:32+0000
1.178 km
极远距离
9.673666E-6 低风险 0.55
CDM_260906-172605-837506-033421
2026-09-06T
17:26:45+0000
1.220 km
极远距离
8.563793E-6 低风险 0.54
CDM_260907-051005-837506-033421
2026-09-07T
05:10:11+0000
2.090 km
极远距离
1.709026E-6 低风险 0.4
CDM_260907-181105-360106-033421
2026-09-07T
18:11:30+0000
2.502 km
极远距离
1.565233E-6 低风险 0.39
CDM_260907-053905-361306-033422
2026-09-07T
05:39:56+0000
2.784 km
极远距离
1.32211E-6 低风险 0.37
CDM_260905-153905-407606-033421
2026-09-05T
15:39:59+0000
2.381 km
极远距离
1.237628E-6 低风险 0.37
CDM_260905-103005-328706-033421
2026-09-05T
10:30:20+0000
2.886 km
极远距离
1.172853E-6 低风险 0.36
CDM_260906-090105-343806-033421
2026-09-06T
09:01:09+0000
2.574 km
极远距离
8.492373E-7 极低风险 0.34